Date String (YYYY-MM-DD hh:mm:ss) UTC,Instrument flags,absolute air pressure of the measurement (hPa),sample flow rate (lpm),inlet stack bypass flow (lpm),air temperature of the measurement (°C),ambient temperature measured by the external sensor (°C),aerosol sample conditioner tube jacket temperature (°C),OPC LED temperature (°C),internal box temperature (°C),relative humidity of the measurement (%),span deviation,mass concentration of particles derived from Lorenz-Mie calculation of OPC scattering (μg/m³),mass concentration of particles derived from Lorenz-Mie calculation of OPC scattering (μg/m³),mass concentration of particles derived from Lorenz-Mie calculation of OPC scattering (μg/m³)
DateTimeUTC,F1_M11,P_M11,Q1_M11,Q2_M11,T1_M11,T2_M11,T3_M11,T4_M11,T5_M11,U1_M11,ZSPAN_M11,X2_M11,X0_M11,X1_M11
2023-10-04 07:00:00,SystemResetWarning,0830.4,5.00,000.00,028.9,025.6,000.0,037.6,030.2,14.1,0000.0,0002.12,0006.28,0001.72
2023-10-04 07:01:00,SystemResetWarning,0830.4,5.00,000.00,028.9,026.0,000.0,037.6,030.3,14.1,0000.0,0002.13,0006.26,0001.74
2023-10-04 07:02:00,SystemResetWarning,0830.4,5.01,000.00,028.8,026.3,000.0,037.5,030.3,14.1,0000.0,0002.17,0005.91,0001.74
2023-10-04 07:03:00,SystemResetWarning,0830.4,5.00,000.00,028.8,026.5,000.0,037.5,030.3,14.1,0000.0,0002.18,0004.92,0001.75
2023-10-04 07:04:00,SystemResetWarning,0830.4,4.99,000.00,028.8,026.7,000.0,037.5,030.4,14.1,0000.0,0002.19,0004.39,0001.74
2023-10-04 07:05:00,SystemResetWarning,0830.5,5.00,000.00,028.8,026.9,000.0,037.4,030.4,14.1,0000.0,0002.28,0004.43,0001.76
2023-10-04 07:06:00,SystemResetWarning,0830.4,5.00,000.00,028.9,027.1,000.0,037.4,030.5,14.1,0000.0,0002.33,0004.62,0001.76
2023-10-04 07:07:00,SystemResetWarning,0830.4,4.99,000.00,028.9,027.2,000.0,037.4,030.5,14.1,0000.0,0002.38,0005.14,0001.78
2023-10-04 07:08:00,SystemResetWarning,0830.6,5.00,000.00,028.9,027.3,000.0,037.4,030.5,14.0,0000.0,0002.41,0006.07,0001.79
2023-10-04 07:09:00,SystemResetWarning,0830.5,4.99,000.00,028.9,027.4,000.0,037.4,030.6,14.0,0000.0,0002.48,0006.74,0001.80
2023-10-04 07:10:00,SystemResetWarning,0830.7,5.00,000.00,028.9,027.5,000.0,037.4,030.6,13.9,0000.0,0002.51,0006.86,0001.80
2023-10-04 07:11:00,SystemResetWarning,0830.4,5.00,000.00,028.9,027.5,000.0,037.4,030.6,13.8,0000.0,0002.59,0007.04,0001.81
2023-10-04 07:12:00,SystemResetWarning,0830.6,5.00,000.00,028.9,027.6,000.0,037.4,030.7,13.8,0000.0,0002.62,0007.14,0001.82
2023-10-04 07:13:00,SystemResetWarning,0830.6,5.00,000.00,029.0,027.6,000.0,037.4,030.7,13.8,0000.0,0002.63,0007.16,0001.83
2023-10-04 07:14:00,SystemResetWarning,0830.6,5.00,000.00,029.0,027.7,000.0,037.4,030.7,13.8,0000.0,0002.67,0006.90,0001.83
2023-10-04 07:15:00,SystemResetWarning,0830.6,5.00,000.00,029.0,027.7,000.0,037.4,030.7,13.8,0000.0,0002.69,0006.80,0001.86
2023-10-04 07:16:00,SystemResetWarning,0830.5,5.00,000.00,029.0,027.7,000.0,037.4,030.7,13.8,0000.0,0002.64,0007.10,0001.85
2023-10-04 07:17:00,SystemResetWarning,0830.7,5.01,000.00,029.0,027.7,000.0,037.4,030.7,13.7,0000.0,0002.58,0007.54,0001.85
2023-10-04 07:18:00,SystemResetWarning,0830.5,5.01,000.00,029.0,027.8,000.0,037.4,030.7,13.7,0000.0,0002.52,0007.29,0001.85
2023-10-04 07:19:00,SystemResetWarning,0830.5,5.00,000.00,029.1,027.8,000.0,037.4,030.7,13.7,0000.0,0002.57,0007.98,0001.87
2023-10-04 07:20:00,SystemResetWarning,0830.6,5.00,000.00,029.1,027.8,000.0,037.4,030.8,13.7,0000.0,0002.54,0007.99,0001.88
2023-10-04 07:21:00,SystemResetWarning,0830.6,5.00,000.00,029.1,027.8,000.0,037.4,030.8,13.7,0000.0,0002.54,0008.51,0001.89
2023-10-04 07:22:00,SystemResetWarning,0830.6,4.99,000.00,029.1,027.8,000.0,037.5,030.8,13.7,0000.0,0002.52,0008.63,0001.89
2023-10-04 07:23:00,SystemResetWarning,0830.7,5.00,000.00,029.1,027.8,000.0,037.5,030.8,13.8,0000.0,0002.53,0008.63,0001.91
2023-10-04 07:24:00,SystemResetWarning,0830.7,5.00,000.00,029.1,027.8,000.0,037.5,030.8,13.8,0000.0,0002.57,0008.68,0001.92
2023-10-04 07:25:00,SystemResetWarning,0830.8,5.00,000.00,029.1,027.9,000.0,037.5,030.8,13.8,0000.0,0002.52,0008.62,0001.93
2023-10-04 07:26:00,SystemResetWarning,0830.8,5.00,000.00,029.2,027.9,000.0,037.5,030.9,13.8,0000.0,0002.48,0008.55,0001.94
2023-10-04 07:27:00,SystemResetWarning,0830.8,4.99,000.00,029.2,027.9,000.0,037.5,030.9,13.7,0000.0,0002.50,0008.23,0001.94
2023-10-04 07:28:00,SystemResetWarning,0830.8,5.00,000.00,029.2,027.9,000.0,037.5,030.9,13.7,0000.0,0002.47,0007.76,0001.94
2023-10-04 07:29:00,SystemResetWarning,0830.8,5.01,000.00,029.2,027.9,000.0,037.5,030.9,13.7,0000.0,0002.52,0007.86,0001.95
2023-10-04 07:30:00,SystemResetWarning,0830.8,5.01,000.00,029.2,028.0,000.0,037.6,030.9,13.7,0000.0,0002.46,0006.03,0001.95
2023-10-04 07:31:00,SystemResetWarning,0830.9,5.00,000.00,029.2,028.0,000.0,037.6,030.9,13.7,0000.0,0002.47,0005.32,0001.95
2023-10-04 07:32:00,SystemResetWarning,0830.9,5.00,000.00,029.2,028.0,000.0,037.6,031.0,13.6,0000.0,0002.48,0004.09,0001.94
2023-10-04 07:33:00,SystemResetWarning,0830.9,5.00,000.00,029.3,028.0,000.0,037.6,030.9,13.6,0000.0,0002.47,0003.78,0001.94
2023-10-04 07:34:00,SystemResetWarning,0830.8,5.00,000.00,029.3,028.0,000.0,037.6,031.0,13.5,0000.0,0002.46,0003.79,0001.92
2023-10-04 07:35:00,SystemResetWarning,0830.8,5.00,000.00,029.3,028.0,000.0,037.6,030.9,13.5,0000.0,0002.41,0003.68,0001.91
2023-10-04 07:36:00,SystemResetWarning,0830.8,5.00,000.00,029.3,028.0,000.0,037.6,031.0,13.5,0000.0,0002.41,0003.85,0001.91
2023-10-04 07:37:00,SystemResetWarning,0830.8,5.00,000.00,029.3,028.0,000.0,037.7,031.0,13.5,0000.0,0002.46,0004.47,0001.90
2023-10-04 07:38:00,SystemResetWarning,0830.9,5.00,000.00,029.3,028.0,000.0,037.7,031.0,13.4,0000.0,0002.48,0004.64,0001.89
2023-10-04 07:39:00,SystemResetWarning,0830.9,5.00,000.00,029.3,028.0,000.0,037.7,031.0,13.4,0000.0,0002.56,0005.09,0001.90
2023-10-04 07:40:00,SystemResetWarning,0830.9,5.00,000.00,029.3,028.1,000.0,037.7,031.0,13.5,0000.0,0002.53,0005.41,0001.90
2023-10-04 07:41:00,SystemResetWarning,0830.9,5.00,000.00,029.3,028.0,000.0,037.7,031.0,13.5,0000.0,0002.51,0005.41,0001.90
2023-10-04 07:42:00,SystemResetWarning,0830.9,5.00,000.00,029.3,028.0,000.0,037.7,031.0,13.5,0000.0,0002.50,0005.37,0001.90
2023-10-04 07:43:00,SystemResetWarning,0830.9,5.00,000.00,029.3,028.0,000.0,037.7,030.9,13.5,0000.0,0002.46,0005.55,0001.89
2023-10-04 07:44:00,SystemResetWarning,0830.9,5.00,000.00,029.3,028.0,000.0,037.7,030.9,13.5,0000.0,0002.46,0005.59,0001.90
2023-10-04 07:45:00,SystemResetWarning,0830.9,4.99,000.00,029.3,026.7,000.0,037.7,030.8,13.5,0000.0,0002.44,0005.59,0001.90
2023-10-04 07:46:00,SystemResetWarning,0830.9,5.01,000.00,029.2,024.8,000.0,037.6,030.6,13.6,0000.0,0002.42,0005.56,0001.91
2023-10-04 07:47:00,SystemResetWarning,0830.9,5.02,000.00,029.1,024.5,000.0,037.6,030.4,13.6,0000.0,0002.48,0005.73,0001.92
2023-10-04 07:48:00,SystemResetWarning,0831.0,5.00,000.00,028.9,024.7,000.0,037.6,030.2,13.8,0000.0,0002.50,0005.12,0001.91
2023-10-04 07:49:00,SystemResetWarning,0831.0,5.00,000.00,028.9,025.1,000.0,037.5,030.1,13.9,0000.0,0002.50,0005.17,0001.93
2023-10-04 07:50:00,SystemResetWarning,0831.1,5.00,000.00,028.8,025.5,000.0,037.5,030.1,13.9,0000.0,0002.46,0005.26,0001.93
2023-10-04 07:51:00,SystemResetWarning,0831.1,5.00,000.00,028.8,025.8,000.0,037.5,030.2,13.9,0000.0,0002.44,0004.91,0001.91
2023-10-04 07:52:00,SystemResetWarning,0831.1,5.00,000.00,028.8,026.2,000.0,037.4,030.3,14.0,0000.0,0002.42,0004.65,0001.90
2023-10-04 07:53:00,SystemResetWarning,0831.1,4.99,000.00,028.7,026.4,000.0,037.4,030.3,14.0,0000.0,0002.43,0004.77,0001.90
2023-10-04 07:54:00,SystemResetWarning,0831.2,4.99,000.00,028.7,026.6,000.0,037.3,030.3,14.0,0000.0,0002.45,0005.26,0001.90
2023-10-04 07:55:00,SystemResetWarning,0831.1,5.00,000.00,028.7,026.8,000.0,037.3,030.3,14.0,0000.0,0002.44,0005.16,0001.92
2023-10-04 07:56:00,SystemResetWarning,0831.1,5.00,000.00,028.7,027.0,000.0,037.3,030.4,14.0,0000.0,0002.46,0005.23,0001.92
2023-10-04 07:57:00,SystemResetWarning,0831.1,5.00,000.00,028.7,027.1,000.0,037.3,030.4,14.1,0000.0,0002.54,0005.73,0001.93
2023-10-04 07:58:00,SystemResetWarning,0831.2,5.01,000.00,028.7,027.1,000.0,037.2,030.4,14.0,0000.0,0002.52,0006.09,0001.92
2023-10-04 07:59:00,SystemResetWarning,0831.2,5.00,000.00,028.7,027.2,000.0,037.2,030.4,14.1,0000.0,0002.44,0006.36,0001.91
